Theta_e
315 319 348 350 350 350 350 350 349 350 349 347 345 345 344 347 347 348 351 351 350 348 351 350 350 349 347 342 339 337 335 332 333 331 333 331 333 335 330 328 327 326 326
313 318 335 348 348 348 349 348 348 348 348 347 348 345 346 346 347 349 351 352 351 351 350 350 347 344 339 338 338 338 334 329 334 331 331 325 328 333 335 329 326 327 326
312 319 333 343 347 347 347 348 349 348 349 349 348 347 347 347 346 346 346 351 352 351 349 347 342 339 338 333 336 334 332 329 333 334 330 325 323 327 331 329 328 326 325
311 316 334 340 344 346 348 347 348 347 347 348 347 348 341 339 342 346 349 350 351 349 344 339 335 334 335 334 334 336 333 333 330 331 330 330 329 323 319 326 325 324 324
310 315 328 339 342 346 347 348 347 347 349 348 349 346 347 346 348 345 342 342 343 341 338 335 333 333 333 336 337 336 334 332 331 329 326 323 323 324 317 313 317 321 322
310 317 327 337 342 345 345 346 345 346 348 348 349 351 349 346 340 338 336 336 338 333 332 335 335 335 335 336 334 332 330 327 326 325 324 322 320 319 318 315 316 315 316
309 316 322 331 339 342 344 344 344 343 345 348 349 349 350 347 342 337 334 333 333 330 330 331 333 334 336 333 330 329 328 328 326 326 324 325 323 323 320 316 313 311 314
308 310 320 328 332 340 343 344 342 342 344 347 350 350 351 345 338 336 334 333 330 330 330 330 329 330 330 329 330 327 325 326 323 323 323 321 320 319 317 314 312 308 310
308 309 315 324 330 336 342 343 342 341 344 347 348 346 340 336 333 332 334 332 327 324 322 324 323 325 325 325 326 322 321 321 320 319 318 317 317 317 317 316 314 309 303
307 310 311 321 329 335 339 343 343 340 343 345 343 337 333 332 332 332 332 330 326 319 317 318 317 318 318 319 319 317 316 316 314 314 315 315 316 315 315 313 312 311 306
306 309 313 317 327 334 338 340 340 337 342 337 333 331 331 331 333 331 329 327 320 315 314 314 314 313 313 315 314 313 313 312 313 314 314 313 313 312 311 310 310 308 307
306 307 313 318 325 331 336 336 339 338 335 332 331 330 330 330 327 326 322 320 312 314 311 310 309 309 309 310 311 311 312 312 313 312 310 308 309 310 309 307 308 306 307
308 309 311 321 325 330 334 335 337 335 331 329 327 327 325 324 321 319 315 310 312 312 309 310 309 309 309 309 310 310 311 311 311 308 306 307 308 307 306 306 305 305 304
312 316 313 323 327 330 331 335 331 331 328 327 324 320 317 317 317 315 309 309 311 309 308 308 307 307 307 308 309 309 308 309 310 307 308 306 305 304 304 303 304 303 302
312 319 319 325 327 329 332 329 328 327 325 322 318 311 309 310 308 305 304 304 305 305 304 304 304 304 305 304 306 306 307 307 307 307 306 304 303 300 301 301 301 300 297
311 320 323 326 328 331 326 326 324 323 320 312 308 308 306 305 303 302 300 301 302 302 301 301 301 300 299 297 299 305 306 306 305 303 303 303 301 301 299 298 297 295 294
313 321 323 327 328 324 324 322 320 317 312 309 307 306 304 303 302 300 298 299 300 300 299 298 299 299 298 295 296 300 303 302 302 301 301 299 299 299 299 298 297 296 293
315 323 324 323 322 322 319 317 316 312 310 307 306 306 303 302 301 299 298 298 297 297 296 297 298 298 295 293 294 297 301 300 300 300 299 298 297 294 294 295 295 295 296
324 320 320 318 317 316 315 313 311 309 307 305 305 304 305 303 300 297 296 296 294 294 295 296 297 297 296 292 293 298 299 298 297 297 295 296 294 291 290 294 293 294 294
315 313 314 313 311 311 311 309 308 307 306 305 305 305 303 301 297 296 295 295 295 295 295 295 297 296 296 292 292 297 297 296 295 295 294 290 290 289 289 293 291 290 290
310 311 311 309 308 309 309 307 306 305 305 305 304 303 301 298 296 295 294 294 294 294 295 294 296 297 297 295 292 293 296 295 293 292 291 290 287 287 287 288 288 287 289
306 306 304 304 306 306 306 304 303 305 307 305 302 301 300 297 295 294 294 294 294 294 294 294 294 296 296 294 292 291 292 294 294 291 290 289 287 287 287 287 285 287 289
303 303 301 300 302 303 303 301 301 304 304 303 301 300 298 296 295 293 293 293 294 293 293 292 292 293 294 294 292 291 291 292 292 291 289 288 287 287 288 287 286 288 289
300 299 298 297 295 300 300 300 301 301 300 299 299 299 297 295 294 293 293 293 293 292 292 292 292 293 293 294 295 295 294 292 292 291 291 289 288 288 288 288 288 288 288
297 297 293 293 294 296 297 298 300 300 298 298 297 296 295 293 292 292 292 292 293 293 292 293 293 293 292 291 290 291 292 292 289 292 291 289 288 288 288 288 288 287 287
293 294 295 293 293 293 294 295 297 298 298 297 297 295 292 292 292 291 290 289 289 289 288 289 292 292 290 289 289 288 287 287 287 290 288 287 287 286 286 286 286 287 285
Wind_Speed
11 9 18 20 21 19 20 22 20 18 14 13 13 11 11 9 8 6 9 10 8 10 8 4 5 5 5 6 5 4 3 3 4 4 2 3 4 5 5 5 4 6 5
12 10 16 20 22 23 21 20 20 18 16 12 10 8 9 7 7 7 7 7 8 8 7 6 6 7 6 6 5 3 2 3 4 2 2 1 4 3 2 3 3 6 4
15 11 16 20 20 21 22 21 21 20 17 14 10 8 9 7 8 8 7 8 9 9 9 8 7 6 4 5 5 3 2 3 3 4 3 1 2 4 3 4 1 4 4
11 12 15 19 21 21 21 20 20 19 17 18 14 13 12 10 7 8 7 7 9 8 8 10 7 7 5 7 5 3 4 3 3 3 4 4 3 3 3 2 1 4 8
11 14 16 18 20 20 20 18 17 17 17 17 14 13 11 9 8 7 9 7 8 9 10 9 7 7 6 6 6 5 5 4 2 2 1 2 2 2 3 7 5 7 5
12 13 15 15 14 15 16 18 19 17 17 17 16 15 14 12 9 8 7 6 6 7 10 10 8 7 8 8 7 7 8 7 5 4 4 3 3 3 4 6 9 10 8
6 10 13 14 14 16 17 17 20 19 19 19 17 16 14 13 11 11 8 9 8 8 7 7 8 7 9 9 8 8 7 6 6 4 4 2 3 3 4 6 8 10 10
4 7 11 14 14 16 18 19 21 20 20 18 16 14 14 8 7 8 8 8 7 8 11 6 9 9 9 10 9 7 6 7 6 6 5 3 3 3 5 6 8 10 9
9 8 9 12 13 15 18 19 20 18 19 18 13 12 13 14 12 13 12 12 13 11 7 5 10 10 9 11 10 8 8 6 5 5 5 4 4 4 5 5 6 7 8
13 8 8 12 13 15 16 17 16 16 18 16 13 13 16 15 14 13 14 16 15 14 12 9 6 11 11 10 9 8 7 6 5 5 5 5 5 5 5 5 6 6 7
17 13 8 10 13 14 15 15 17 18 16 15 15 16 16 16 14 15 16 15 15 13 15 11 9 12 10 9 10 9 7 7 7 6 7 8 7 5 6 6 6 7 8
16 15 8 8 12 14 15 16 16 16 15 17 16 16 16 15 15 14 16 17 15 15 14 13 12 10 10 10 9 8 7 9 8 9 8 7 5 8 7 7 8 8 9
12 11 7 9 12 14 15 17 17 18 17 18 18 16 16 16 15 16 16 15 16 17 13 12 12 11 11 9 8 9 9 8 9 8 7 8 8 8 8 8 8 8 8
7 8 11 12 14 15 17 18 17 19 20 19 18 16 16 17 17 17 16 15 17 15 14 13 12 11 9 9 9 9 8 9 8 8 8 9 10 10 10 9 10 9 10
7 8 13 14 16 17 17 17 18 19 20 19 18 18 18 18 17 17 16 15 15 15 14 13 11 10 8 6 9 9 9 9 9 8 7 9 10 12 11 8 10 11 11
8 9 15 18 20 20 17 18 18 19 21 20 20 19 20 19 17 17 16 15 16 15 12 12 12 11 8 10 11 9 9 9 9 9 8 8 12 11 10 12 12 10 11
9 13 17 19 19 18 18 20 19 20 21 22 20 21 21 20 18 17 16 15 15 14 13 11 12 12 11 11 11 9 10 10 10 10 9 9 9 12 11 11 11 9 9
11 17 12 16 19 19 19 20 19 21 22 22 20 20 21 20 17 18 17 16 14 13 11 11 12 13 10 13 11 10 11 11 12 11 10 10 11 13 13 11 11 11 11
14 15 15 18 21 20 20 21 20 21 22 22 20 20 20 22 20 19 17 15 14 13 12 11 13 13 12 13 10 9 11 12 11 11 13 11 12 15 18 11 13 13 12
16 18 20 20 21 20 21 23 22 23 21 21 21 20 21 21 20 18 17 15 14 13 12 14 14 15 13 13 10 8 8 9 8 9 10 19 14 15 17 12 13 13 14
17 18 19 20 21 21 24 23 22 22 21 22 20 20 20 21 19 18 15 14 14 14 14 15 14 14 12 13 13 10 8 8 8 7 8 10 16 15 17 14 13 13 15
20 20 22 20 18 20 24 23 23 21 22 21 21 20 19 15 14 17 15 15 15 15 14 14 12 10 11 12 12 14 13 9 8 8 8 9 12 12 13 13 15 13 13
18 19 23 24 18 19 22 24 20 21 22 22 22 20 19 17 15 16 15 12 12 11 11 10 10 9 8 10 13 13 12 12 9 8 8 9 10 9 8 12 15 14 11
17 20 25 24 22 20 21 21 21 21 22 22 20 18 18 16 14 12 11 11 10 10 10 10 9 8 7 7 7 7 6 7 6 6 9 7 6 7 9 10 12 11 11
17 19 23 21 21 20 21 18 20 20 20 19 18 18 14 15 15 13 11 10 10 9 9 8 8 8 9 9 11 11 7 7 6 5 8 9 9 10 10 10 11 11 11
19 20 22 22 20 21 20 18 18 19 19 19 15 14 13 13 14 14 13 18 14 13 12 11 10 10 12 12 14 12 11 8 8 8 9 9 10 11 11 11 11 11 13
Wind_Direction
240 204 194 187 179 175 174 180 185 182 177 184 179 182 188 187 184 183 179 175 169 177 178 179 127 123 123 122 135 113 154 86 25 294 135 112 121 111 117 84 71 50 46
234 196 190 184 180 178 180 181 187 181 184 187 176 181 177 192 182 175 176 163 173 164 165 154 134 124 121 135 127 145 145 72 28 1 270 151 154 135 135 119 86 37 14
245 202 183 185 182 180 183 187 183 182 184 181 163 142 154 150 169 178 166 167 161 155 153 137 126 114 125 120 112 132 141 136 73 29 343 291 4 321 148 175 224 354 345
248 229 190 183 187 189 187 184 185 181 181 176 177 180 179 178 181 168 161 149 144 151 131 116 103 121 123 114 125 123 123 124 121 136 62 46 357 330 298 163 249 298 327
241 221 206 195 194 187 189 185 179 181 181 182 180 177 181 164 144 136 136 125 138 133 121 116 121 112 117 119 116 118 91 91 81 50 97 73 65 57 304 302 321 314 325
225 225 217 208 196 189 184 181 178 180 181 182 180 181 175 157 138 141 131 135 131 122 109 95 128 132 128 125 114 98 86 83 80 72 48 22 359 354 321 305 315 320 329
200 225 219 207 201 189 187 182 179 180 183 184 178 183 172 152 138 141 144 135 123 101 77 122 133 131 122 117 109 98 93 87 81 64 74 58 43 348 319 300 311 315 318
235 228 227 218 209 193 188 185 182 177 182 179 177 174 157 128 124 118 114 107 98 83 105 130 109 113 116 108 103 102 88 83 79 72 51 54 33 345 329 321 319 311 314
247 234 226 223 212 200 195 191 185 173 173 169 152 140 125 123 121 115 116 117 109 94 70 75 95 106 102 97 102 93 89 85 74 70 49 13 9 357 342 330 326 332 318
239 223 212 213 210 204 195 192 182 170 165 150 139 130 121 123 122 125 132 129 120 116 118 110 108 101 91 93 99 94 81 79 57 49 42 24 21 16 2 347 344 337 322
230 226 205 209 204 198 191 178 167 158 150 128 127 122 125 128 131 126 132 123 117 115 120 122 115 92 98 91 86 82 76 72 66 57 54 49 32 18 4 346 351 337 331
228 235 224 190 190 187 177 169 152 149 130 124 127 125 129 123 124 126 129 126 114 117 115 108 100 99 83 74 82 86 77 70 69 63 62 41 22 9 3 344 351 344 332
232 227 225 187 179 176 166 165 145 136 130 126 121 124 121 121 119 123 116 105 108 105 104 104 97 88 81 87 85 87 84 77 75 72 55 37 20 15 3 1 355 348 333
248 219 204 184 172 167 167 158 132 133 126 123 123 120 117 115 115 120 108 105 106 109 102 91 87 86 90 90 90 87 84 80 75 72 54 40 31 17 4 3 0 350 330
259 205 183 171 159 161 156 133 133 131 125 121 117 113 110 109 110 103 97 96 102 94 94 101 95 90 85 80 95 90 86 84 80 66 47 49 27 21 19 2 1 349 339
288 191 171 165 157 154 135 132 128 124 119 114 116 116 111 108 105 102 100 98 100 100 98 98 99 95 83 82 80 87 86 75 66 58 45 38 32 23 22 11 3 2 349
262 168 175 163 145 135 133 129 124 121 116 118 118 117 113 110 107 103 100 104 101 102 100 101 100 91 82 71 79 75 80 76 64 52 44 40 36 15 0 359 352 1 1
249 160 151 131 126 125 118 119 118 118 116 115 119 118 114 111 112 110 108 107 106 104 104 101 96 89 72 68 71 79 84 79 68 60 46 37 30 22 355 358 358 357 358
149 123 129 120 118 116 118 115 114 112 114 116 117 114 117 120 116 113 112 109 109 104 97 91 89 84 72 57 55 92 86 80 72 64 43 30 31 17 0 8 3 357 360
120 120 119 115 108 113 114 111 113 111 111 113 114 112 118 117 112 111 108 107 102 100 96 88 84 79 76 55 49 63 81 74 72 60 51 47 29 19 12 15 5 358 353
117 119 113 111 111 118 114 110 109 108 112 109 111 113 112 110 110 110 107 109 105 100 94 90 82 79 75 65 56 33 70 65 63 52 46 42 19 18 15 11 17 354 324
108 111 103 97 100 110 106 106 104 109 109 109 106 106 109 106 109 108 109 106 103 100 95 92 90 81 77 65 66 64 54 54 67 50 43 43 16 10 27 13 359 339 342
106 107 104 95 93 98 104 108 105 107 109 106 107 108 108 108 108 106 105 104 100 97 99 96 93 91 93 89 77 65 66 51 64 54 48 27 29 7 28 22 8 2 9
99 105 99 96 95 100 100 99 108 111 107 104 106 108 108 106 100 97 98 99 98 100 98 97 99 102 93 81 67 73 83 83 65 56 47 31 18 37 22 15 17 15 11
90 93 93 95 96 97 96 102 109 109 104 105 108 110 106 102 98 85 84 89 69 77 101 100 101 101 87 65 52 45 54 56 35 40 44 32 26 23 19 17 19 13 8
80 89 90 92 96 93 95 99 102 106 108 109 110 110 109 106 103 99 91 55 69 72 72 54 85 84 92 86 73 69 64 44 351 55 43 34 26 22 14 10 10 12 8